Starlink 2188

operational
NORAD ID: 48563 Int'l Des: 2021-041 Owner: SPXS Country: US Constellation: starlink
LEOCIRCULARSTARLINK_TYPE

关于 Starlink 2188

正在加载描述...

实时位置

正在加载3D地球...

即将过境

高度历史

Altitude vs Time

uPlot chart will show altitude changes over time

两行轨道根数

1 48563U 21041L 25259.20842202 .00002740 00000-0 20273-3 0 9997
2 48563 53.0537 194.8969 0001658 91.2125 268.9054 15.06411222238907
Epoch: Sep 16, 2025 • Age: 6 hours

当前状态

高度 550.0 km
速度 7.59 km/s
星下点 -9.49°S, 21.09°E
发射日期 May 15, 2021
运行时间 4.3 years
类型 internet

技术详情

分类 Payload
质量 260.00 kg
干质量 248.00 kg
总质量 260.00 kg
长度 0.20 m
直径 2.80 m
跨度 9.00 m
形状 Box + pan
制造商 SPXS
平台类型 Starlink
阶段状态 In Orbit
所有者/国家 SPXS/US

大型星座

Loading constellations...